Weather History for KIML - April, 2013

Change the Weather History Date:

Saturday, April 27, 2013

  Actual Average Record
Temperature  
Mean Temperature 57 °F 52 °F  
Max Temperature 81 °F 66 °F 90 °F (1953)
Min Temperature 32 °F 39 °F 19 °F (1909)
Degree Days  
Heating Degree Days 8 13  
Month to date heating degree days 606 462  
Cooling Degree Days 0 0  
Month to date cooling degree days 0 0  
Year to date cooling degree days 0 0  
Growing Degree Days 6 (Base 50)    
Moisture  
Dew Point 26 °F    
Average Humidity 46    
Maximum Humidity 82    
Minimum Humidity 10    
Precipitation  
Precipitation 0.00 in 0.08 in 3.55 in (1906)
Sea Level Pressure  
Sea Level Pressure 30.01 in    
Wind  
Wind Speed 5 mph (West)    
Max Wind Speed 16 mph    
Max Gust Speed 22 mph    
Visibility 10 miles    
Events      
T = Trace of Precipitation, MM = Missing Value Source: NWS Daily Summary

Daily Weather History Graph

Daily Weather History Graph

Search for Another Location

Airport or City:

Trip Planner

Search our weather history database for the weather conditions in past years. The results will help you decide how hot, cold, wet, or windy it might be!

Date:

Astronomy

Apr. 27, 2013 Rise Set
Actual Time 5:50 AM MDT 7:38 PM MDT
Civil Twilight 5:21 AM MDT 8:07 PM MDT
Nautical Twilight 4:45 AM MDT 8:43 PM MDT
Astronomical Twilight 4:07 AM MDT 9:21 PM MDT
Moon 10:10 PM MDT (4/27) 7:10 AM MDT (4/27)
Length of Visible Light 14h 46m
Length of Day
13h 48m
Waning Gibbous, 95% of the Moon is Illuminated
Apr 27
Waning Gibbous
May 2
Last Quarter
May 9
New
May 17
First Quarter
May 24
Full

Hourly Weather History & Observations

Time (MDT) Temp. Windchill Dew Point Humidity Pressure Visibility Wind Dir Wind Speed Gust Speed Precip Events Conditions
12:53 AM 44.1 °F 42.5 °F 30.9 °F 60% 30.15 in 10.0 mi SSE 3.5 mph - N/A   Clear
1:53 AM 45.0 °F 43.5 °F 33.1 °F 63% 30.12 in 10.0 mi SSW 3.5 mph - N/A   Clear
2:53 AM 39.9 °F 36.7 °F 32.0 °F 73% 30.13 in 10.0 mi WSW 4.6 mph - N/A   Clear
3:53 AM 39.0 °F - 30.0 °F 70% 30.12 in 10.0 mi Calm Calm - N/A   Clear
4:53 AM 34.0 °F 31.0 °F 28.0 °F 79% 30.12 in 10.0 mi NNW 3.5 mph - N/A   Clear
5:53 AM 33.1 °F - 26.1 °F 75% 30.13 in 10.0 mi Calm Calm - N/A   Clear
6:53 AM 41.0 °F 39.0 °F 30.0 °F 65% 30.13 in 10.0 mi NW 3.5 mph - N/A   Clear
7:53 AM 48.0 °F - 30.9 °F 52% 30.13 in 10.0 mi Calm Calm - N/A   Clear
8:53 AM 57.0 °F - 34.0 °F 42% 30.11 in 10.0 mi SSW 3.5 mph - N/A   Clear
9:53 AM 64.0 °F - 35.1 °F 34% 30.08 in 10.0 mi South 6.9 mph - N/A   Clear
10:53 AM 71.1 °F - 30.9 °F 23% 30.05 in 10.0 mi SSW 8.1 mph - N/A   Clear
11:53 AM 73.9 °F - 25.0 °F 16% 30.01 in 10.0 mi South 4.6 mph - N/A   Clear
12:53 PM 75.0 °F - 19.0 °F 12% 29.99 in 10.0 mi Variable 3.5 mph - N/A   Clear
1:53 PM 79.0 °F - 21.9 °F 12% 29.95 in 10.0 mi West 13.8 mph 21.9 mph N/A   Clear
2:53 PM 79.0 °F - 19.9 °F 11% 29.93 in 10.0 mi Variable 3.5 mph - N/A   Clear
3:53 PM 80.1 °F - 19.0 °F 10% 29.91 in 10.0 mi NW 10.4 mph - N/A   Clear
4:53 PM 80.1 °F - 19.0 °F 10% 29.90 in 10.0 mi West 6.9 mph - N/A   Clear
5:53 PM 78.1 °F - 18.0 °F 10% 29.90 in 10.0 mi NW 4.6 mph - N/A   Clear
6:53 PM 71.1 °F - 23.0 °F 16% 29.90 in 10.0 mi NNW 6.9 mph - N/A   Clear
7:53 PM 64.9 °F - 21.9 °F 19% 29.90 in 10.0 mi NNW 6.9 mph - N/A   Clear
8:53 PM 57.9 °F - 24.1 °F 27% 29.91 in 10.0 mi NNW 4.6 mph - N/A   Clear
9:53 PM 57.0 °F - 26.1 °F 30% 29.89 in 10.0 mi WNW 3.5 mph - N/A   Clear
10:53 PM 48.9 °F - 28.0 °F 44% 29.89 in 10.0 mi Calm Calm - N/A   Clear
11:53 PM 45.0 °F 43.5 °F 28.9 °F 53% 29.88 in 10.0 mi South 3.5 mph - N/A   Clear